Torna al catalogo

CZ-6A DEB

AttivoPO
NORAD 61083·DEBRIS·🇨🇳 China

Lanciato Aug 6, 2024 da Taiyuan Satellite Launch Center

Loading…

Prossimi Passaggi (prossime 24 ore)

TLE

AggiornatoSource: Space-Track

Epoca: Sep 14, 2026, 23:07 UTC

1 61083U 24140MZ  26257.96377514  .00000344  00000-0  90492-4 0  9992
2 61083  88.8903 251.0277 0098267  23.6119 336.9548 14.43833594108162

Traccia CZ-6A DEB in tempo reale con AllMySat

Download on the App Store